This is the latest recevied weather packets stored in our database for station/object K5YNC. If no packets are shown the sender has not sent any weather packets the latest 10 day(s).
| Time | Temp. | Humidity | Pressure | Rain* | Wind** | Luminosity | Snow |
|---|---|---|---|---|---|---|---|
| 1777851549 | 25.56° C | 34% | 1016.6 hPa | 0 mm | - | 35 W/m² | - |
| 1777851245 | 25.56° C | 35% | 1016.8 hPa | 0 mm | - | 42 W/m² | - |
| 1777850941 | 25.56° C | 34% | 1016.7 hPa | 0 mm | - | 42 W/m² | - |
| 1777850639 | 25.56° C | 33% | 1016.8 hPa | 0 mm | - | 39 W/m² | - |
| 1777850336 | 26.11° C | 33% | 1016.9 hPa | 0 mm | - | 38 W/m² | - |
| 1777850033 | 26.11° C | 34% | 1016.8 hPa | 0 mm | - | 41 W/m² | - |
| 1777849729 | 26.11° C | 33% | 1016.8 hPa | 0 mm | - | 41 W/m² | - |
| 1777849426 | 26.11° C | 33% | 1017 hPa | 0 mm | - | 42 W/m² | - |
| 1777849124 | 26.11° C | 35% | 1016.7 hPa | 0 mm | - | 43 W/m² | - |
| 1777848820 | 26.11° C | 34% | 1016.8 hPa | 0 mm | - | 44 W/m² | - |
| 1777848516 | 26.11° C | 35% | 1016.8 hPa | 0 mm | - | 45 W/m² | - |
| 1777848214 | 26.67° C | 34% | 1017 hPa | 0 mm | - | 47 W/m² | - |
| 1777847911 | 26.67° C | 34% | 1016.9 hPa | 0 mm | - | 49 W/m² | - |
| 1777847609 | 26.67° C | 34% | 1017.3 hPa | 0 mm | - | 91 W/m² | - |
| 1777847304 | 26.67° C | 33% | 1017.1 hPa | 0 mm | - | 70 W/m² | - |
| 1777847003 | 26.67° C | 33% | 1017.2 hPa | 0 mm | - | 73 W/m² | - |
| 1777846701 | 26.67° C | 32% | 1017.2 hPa | 0 mm | - | 52 W/m² | - |
| 1777846400 | 26.67° C | 35% | 1017.4 hPa | 0 mm | - | 53 W/m² | - |
| 1777846095 | 26.67° C | 32% | 1017.4 hPa | 0 mm | - | 52 W/m² | - |
| 1777845792 | 27.22° C | 34% | 1017.2 hPa | 0 mm | - | 57 W/m² | - |
| 1777845489 | 26.67° C | 34% | 1017.3 hPa | 0 mm | - | 282 W/m² | - |
| 1777845186 | 26.67° C | 33% | 1017.4 hPa | 0 mm | - | 491 W/m² | - |
| 1777844884 | 26.67° C | 32% | 1017.5 hPa | 0 mm | - | 416 W/m² | - |
| 1777844580 | 26.67° C | 33% | 1017.5 hPa | 0 mm | - | 521 W/m² | - |
| 1777844278 | 26.67° C | 35% | 1017.6 hPa | 0 mm | - | 537 W/m² | - |
* Rain latest hour (hover to see other rain measurements)
** Current wind speed in m/s (hover to see current wind gust speed)